Location: ?astrovice
(49.6513°N, 14.9287°E)
Time: 06:29:45
(UTC+00:00)

Terra - Pass Details

Date: 09 April 2020
Orbit: 701 x 703 km, 98.2° (Epoch: 29 May)

Event Time Altitude Azimuth Distance (km) Brightness Sun altitude
Exits shadow 18:50:34 - 78° (ENE) 2,374 4.1 -10.8°
Reaches altitude 10° 18:52:09 10° 60° (ENE) 2,180 4.0 -11.0°
Maximum altitude 18:52:54 10° 51° (NE) 2,157 4.1 -11.2°
Drops below altitude 10° 18:53:39 10° 42° (NE) 2,182 4.2 -11.3°
Sets 18:58:07 0° 2° (N) 3,108 5.5 -11.9°
